This demonstration page uses our WeatherBlox Daily Observations layout. Learn more.

Left ArrowRight Arrow

34.02893, -84.19858

Hourly Observations for May 3, 2015

Temp ( °F °C ) Dew Point ( °F °C ) Humidity (%) Winds ( mph kmh ) Pressure ( in mb ) Visibility ( mi km ) Precip ( " mm )
12:53 am 00:53 Clear 57 13.9 50 10 78 78 Calm 30.08 1019 10 16 0.00 0.00
1:53 am 01:53 Clear 53 11.7 50 10 89 89 Calm 30.09 1019 10 16 0.00 0.00
2:53 am 02:53 Clear 52 11.1 49 9.4 89 89 Calm 30.07 1018 10 16 0.00 0.00
3:53 am 03:53 Clear 51 10.6 49 9.4 92 92 Calm 30.07 1018 9 14 0.00 0.00
4:53 am 04:53 Clear 50 10 48 8.9 93 93 Calm 30.08 1019 9 14 0.00 0.00
5:53 am 05:53 Clear 49 9.4 48 8.9 97 97 Calm 30.09 1019 8 13 0.00 0.00
6:53 am 06:53 Sunny 50 10 48 8.9 93 93 Calm 30.11 1020 7 11 0.00 0.00
7:53 am 07:53 Sunny with Mist and Fog 55 12.8 52 11.1 90 90 Calm 30.13 1020 6 10 0.00 0.00
8:53 am 08:53 Sunny 62 16.7 53 11.7 73 73 Calm 30.15 1021 8 13 0.00 0.00
9:53 am 09:53 Sunny 68 20 52 11.1 57 57 Calm 30.16 1021 10 16 0.00 0.00
10:53 am 10:53 Sunny 72 22.2 51 10.6 48 48 SW 6 9 30.17 1022 10 16 0.00 0.00
11:53 am 11:53 Sunny 75 23.9 50 10 41 41 SSW 7 11 30.17 1022 10 16 0.00 0.00
12:53 pm 12:53 Mostly Sunny 74 23.3 48 8.9 40 40 S 10 17 30.17 1022 10 16 0.00 0.00
1:53 pm 13:53 Mostly Cloudy 77 25 50 10 39 39 SW 10 17 30.15 1021 10 16 0.00 0.00
2:53 pm 14:53 Partly Cloudy 78 25.6 48 8.9 35 35 SW 7 11 30.14 1021 10 16 0.00 0.00
3:53 pm 15:53 Sunny 77 25 47 8.3 35 35 undefined N/A 30.12 1020 10 16 0.00 0.00
4:53 pm 16:53 Mostly Cloudy 78 25.6 48 8.9 35 35 S 8 13 30.11 1020 10 16 0.00 0.00
5:53 pm 17:53 Mostly Sunny 76 24.4 47 8.3 36 36 SSE 3 6 30.11 1020 10 16 0.00 0.00
6:53 pm 18:53 Partly Cloudy 76 24.4 47 8.3 36 36 S 6 9 30.11 1020 10 16 0.00 0.00
7:53 pm 19:53 Mostly Cloudy 74 23.3 48 8.9 40 40 SE 3 6 30.11 1020 10 16 0.00 0.00
8:53 pm 20:53 Mostly Cloudy 69 20.6 49 9.4 49 49 Calm 30.13 1020 10 16 0.00 0.00
9:53 pm 21:53 Clear 66 18.9 50 10 56 56 SSE 3 6 30.14 1021 10 16 0.00 0.00
10:53 pm 22:53 Clear 62 16.7 50 10 65 65 Calm 30.16 1021 10 16 0.00 0.00
11:53 pm 23:53 Mostly Cloudy 60 15.6 52 11.1 75 75 Calm 30.17 1022 10 16 0.00 0.00

Powered by AerisWeather